DIAMANT B-P4 DEB, 7654

Orbit data source: Space-Track

DIAMANT B-P4 DEB, 7654 is space debris in LEO originally from a launch on Thu, 06 Feb 1975 UTC launched from the French Guiana (FRGUI). Debris objects in space refer to the collection of defunct objects orbiting the Earth. Examples of debris include non-operational satellites, rocket bodies, and fragments generated from explosions, collisions, or faulty payload assembly.

Loading next visibility...
Identifier
7654, 1975-010C
Orbit
LEO
Country
Flag of FRFR
Related business
Manufacturer
Unknown
Mission
Spacecraft
Bus & Motor
Unknown
Mass
Unknown
Launch date (UTC)
1975-02-06 (51 years ago)
Launch vehicle
Unknown
Launch site
French Guiana (FRGUI)
Object type
Payload
Rocket body
Debris
Shape & HBR
Unknown shape, 0.1 m
Radar Cross Section
Small (<0.1 m²)

Expand to show TLE details & history
Last TLE update: 11 hours ago

TLE from 11 hours ago
0 DIAMANT B-P4 DEB
1  7654U 75010C   26128.00818189  .00000093  00000-0  15445-3 0  9993
2  7654  49.8466 346.7359 0171686 320.9658  37.8953 13.95830204604347
Epoch: 2026-05-08T00:11Z
TLE epoch observation values (Epoch: 2026-05-08T00:11:46.915Z)
Latitude
-0.00007°
Longitude
117.94423°
Altitude
810.891 km
Speed
7.499 km/s
True Right ascension
23h 06m 56s
True Declination
0° 00' 00"
Sunlit
Object was in daylight at epoch
Visualization orbit readout
Latitude
Unknown
Longitude
Unknown
Altitude
Unknown
Speed
Unknown
Apparent Right ascension
Unknown
Apparent Declination
Unknown
Sunlit
N/A
Visualization observer readout
Local Sidereal Time
19:44:19
Azimuth
Unknown
Elevation
Unknown
Doppler factor
Unknown
Orbital elements
Apogee altitude
1,034.133 km
Perigee altitude
783.913 km
Semi-major axis
7,287.16 km
Eccentricity
0.01717
Inclination
49.8466°
RAAN
346.7359°
Arg. of periapsis
320.9658°
True anomaly
39.12441°
Mean anomaly
37.8953°
Eccentric anomaly
38.50776°
Mean motion
3.48904 °/min
Orbital period
103.18 mins
BSTAR
0.00015445
Loading maneuver chart data...
Computing Atmospheric mass density...
Loading historical data...
Loading historical data...
Loading historical data...
Loading historical data...
Loading historical data...
Loading historical data...
Loading historical data...
Other satellites on launch #10 in the year 1975 (1975-02-06 UTC)

Documentation

Showing up to 5 results
|